This demonstration page uses our WeatherBlox Daily Observations layout. Learn more.

36.17497, -115.13722

Hourly Observations for February 17, 2020

Temp ( °F °C ) Dew Point ( °F °C ) Humidity (%) Winds ( mph kmh ) Pressure ( in mb ) Visibility ( mi km ) Precip ( " mm )
12:53 am 00:53 Clear 54 12.2 28 -2.2 37 37 Calm 29.99 1016 10 16.0934 0 0
1:53 am 01:53 Clear 51 10.6 27 -2.8 39 39 WNW 6 9 30 1016 10 16.0934 0 0
2:53 am 02:53 Clear 51 10.6 27 -2.8 39 39 W 7 11 29.98 1015 10 16.0934 0 0
3:53 am 03:53 Clear 51 10.6 29 -1.7 43 43 SW 5 7 29.99 1016 10 16.0934 0 0
4:53 am 04:53 Clear 52 11.1 27 -2.8 38 38 NW 8 13 30 1016 10 16.0934 0 0
5:53 am 05:53 Clear 52 11.1 27 -2.8 38 38 WNW 6 9 30.01 1016 10 16.0934 0 0
6:53 am 06:53 Sunny 52 11.1 27 -2.8 38 38 NNW 5 7 30.03 1017 10 16.0934 0 0
7:53 am 07:53 Sunny 58 14.4 28 -2.2 32 32 Calm 30.04 1017 10 16.0934 0 0
8:53 am 08:53 Mostly Cloudy 64 17.8 27 -2.8 25 25 N 10 17 30.05 1018 10 16.0934 0 0
9:53 am 09:53 Cloudy 67 19.4 24 -4.4 20 20 N 13 20 30.05 1018 10 16.0934 0 0
10:53 am 10:53 Sunny 67 19.4 23 -5 19 19 NNW 6 9 30.04 1017 10 16.0934 0 0
11:53 am 11:53 Sunny 70 21.1 21 -6.1 16 16 N 10 17 30.01 1016 10 16.0934 0 0
12:53 pm 12:53 Sunny 68 20 23 -5 18 18 SE 3 6 29.98 1015 10 16.0934 0 0
1:53 pm 13:53 Sunny 71 21.7 9 -12.8 9 9 undefined N/A 29.96 1015 10 16.0934 0 0
2:53 pm 14:53 Sunny 71 21.7 6 -14.4 8 8 VRB 7 11 29.95 1014 10 16.0934 0 0
3:53 pm 15:53 Sunny 71 21.7 11 -11.7 10 10 N 12 19 29.94 1014 10 16.0934 0 0
4:53 pm 16:53 Sunny 70 21.1 10 -12.2 10 10 WNW 10 17 29.93 1014 10 16.0934 0 0
5:53 pm 17:53 Clear 67 19.4 10 -12.2 11 11 WNW 12 19 29.94 1014 10 16.0934 0 0
6:53 pm 18:53 Clear 63 17.2 11 -11.7 13 13 W 6 9 29.96 1014 10 16.0934 0 0
7:53 pm 19:53 Clear 61 16.1 13 -10.6 15 15 E 5 7 29.97 1015 10 16.0934 0 0
8:53 pm 20:53 Clear 57 13.9 13 -10.6 17 17 NNW 5 7 29.99 1016 10 16.0934 0 0
9:53 pm 21:53 Clear 58 14.4 7 -13.9 13 13 NW 14 22 29.99 1016 10 16.0934 0 0
10:53 pm 22:53 Clear 59 15 5 -15 11 11 WNW 10 17 30.01 1016 10 16.0934 0 0
11:53 pm 23:53 Clear 56 13.3 5 -15 13 13 NNW 15 24 30.01 1016 10 16.0934 0 0

Powered by AerisWeather